| time (UTC) | temp C | wind direction | speed KPH | gust KPH | rain 1hr cm | rain 24hr cm | rain mn cm | humidity % | barometer mb |
| 20260503223505 | 17 | 0 | 0.0 | 9.7 | 0.00 | 0.00 | 0.00 | 27 | 1016.3 |
| 20260503222505 | 17 | 0 | 0.0 | 16.1 | 0.00 | 0.00 | 0.00 | 27 | 1016.3 |
| 20260503222005 | 17 | 0 | 0.0 | 9.7 | 0.00 | 0.00 | 0.00 | 27 | 1016.3 |
| 20260503221505 | 17 | 343 | 3.2 | 16.1 | 0.00 | 0.00 | 0.00 | 27 | 1016.2 |
| 20260503220506 | 17 | 345 | 11.3 | 16.1 | 0.00 | 0.00 | 0.00 | 26 | 1016.1 |
| 20260503220009 | 17 | 0 | 0.0 | 16.1 | 0.00 | 0.00 | 0.00 | 27 | 1016.1 |
| 20260503215505 | 17 | 0 | 0.0 | 12.9 | 0.00 | 0.00 | 0.00 | 27 | 1016.2 |
| 20260503215005 | 17 | 0 | 0.0 | 12.9 | 0.00 | 0.00 | 0.00 | 27 | 1016.0 |
| 20260503214505 | 17 | 0 | 0.0 | 12.9 | 0.00 | 0.00 | 0.00 | 26 | 1016.3 |
| 20260503214005 | 17 | 0 | 0.0 | 9.7 | 0.00 | 0.00 | 0.00 | 27 | 1016.2 |
| 20260503213505 | 17 | 0 | 0.0 | 12.9 | 0.00 | 0.00 | 0.00 | 27 | 1016.2 |
| 20260503213006 | 17 | 0 | 0.0 | 17.7 | 0.00 | 0.00 | 0.00 | 26 | 1016.2 |
| 20260503212505 | 17 | 348 | 3.2 | 30.6 | 0.00 | 0.00 | 0.00 | 27 | 1016.3 |
| 20260503211006 | 17 | 327 | 3.2 | 24.1 | 0.00 | 0.00 | 0.00 | 27 | 1016.2 |
| 20260503210505 | 17 | 358 | 3.2 | 16.1 | 0.00 | 0.00 | 0.00 | 27 | 1016.1 |
| 20260503210008 | 18 | 0 | 0.0 | 16.1 | 0.00 | 0.00 | 0.00 | 27 | 1016.1 |
| 20260503205505 | 18 | 214 | 8.0 | 24.1 | 0.00 | 0.00 | 0.00 | 27 | 1016.1 |
| 20260503205005 | 17 | 234 | 11.3 | 24.1 | 0.00 | 0.00 | 0.00 | 28 | 1016.2 |
| 20260503204506 | 17 | 293 | 3.2 | 17.7 | 0.00 | 0.00 | 0.00 | 28 | 1016.2 |
| 20260503203505 | 17 | 0 | 0.0 | 17.7 | 0.00 | 0.00 | 0.00 | 28 | 1016.2 |
| 20260503203006 | 18 | 29 | 8.0 | 17.7 | 0.00 | 0.00 | 0.00 | 27 | 1016.3 |
| 20260503202506 | 18 | 347 | 8.0 | 17.7 | 0.00 | 0.00 | 0.00 | 28 | 1016.3 |
| 20260503201506 | 18 | 192 | 8.0 | 17.7 | 0.00 | 0.00 | 0.00 | 29 | 1016.4 |
| 20260503201006 | 18 | 232 | 8.0 | 17.7 | 0.00 | 0.00 | 0.00 | 28 | 1016.3 |
| 20260503200505 | 18 | 0 | 0.0 | 16.1 | 0.00 | 0.00 | 0.00 | 28 | 1016.3 |
| 20260503195505 | 18 | 0 | 0.0 | 24.1 | 0.00 | 0.00 | 0.00 | 28 | 1016.3 |
| 20260503195006 | 18 | 310 | 11.3 | 24.1 | 0.00 | 0.00 | 0.00 | 28 | 1016.3 |
| 20260503194504 | 18 | 0 | 0.0 | 16.1 | 0.00 | 0.00 | 0.00 | 29 | 1016.5 |
| 20260503194006 | 18 | 323 | 3.2 | 16.1 | 0.00 | 0.00 | 0.00 | 28 | 1016.6 |
| 20260503193006 | 17 | 329 | 8.0 | 16.1 | 0.00 | 0.03 | 0.00 | 30 | 1016.7 |
| 20260503192505 | 17 | 335 | 3.2 | 20.9 | 0.00 | 0.03 | 0.00 | 29 | 1016.8 |
| 20260503192006 | 17 | 8 | 3.2 | 20.9 | 0.00 | 0.03 | 0.00 | 29 | 1016.8 |
| 20260503191506 | 17 | 348 | 8.0 | 20.9 | 0.00 | 0.03 | 0.00 | 29 | 1016.9 |
| 20260503191006 | 17 | 323 | 8.0 | 16.1 | 0.00 | 0.03 | 0.00 | 29 | 1016.9 |
| 20260503190505 | 17 | 287 | 3.2 | 20.9 | 0.00 | 0.03 | 0.00 | 29 | 1017.2 |
| 20260503190010 | 17 | 302 | 8.0 | 27.4 | 0.00 | 0.03 | 0.00 | 30 | 1016.9 |
| 20260503185506 | 17 | 317 | 8.0 | 27.4 | 0.00 | 0.03 | 0.00 | 30 | 1017.1 |
| 20260503184506 | 17 | 68 | 8.0 | 20.9 | 0.00 | 0.03 | 0.00 | 30 | 1017.1 |
| 20260503184005 | 17 | 354 | 3.2 | 20.9 | 0.00 | 0.03 | 0.00 | 31 | 1017.3 |
| 20260503183505 | 17 | 0 | 0.0 | 24.1 | 0.00 | 0.03 | 0.00 | 31 | 1017.3 |
| 20260503183006 | 17 | 324 | 11.3 | 24.1 | 0.00 | 0.03 | 0.00 | 31 | 1017.3 |
| 20260503182505 | 17 | 318 | 3.2 | 24.1 | 0.00 | 0.03 | 0.00 | 31 | 1017.4 |
| 20260503182006 | 17 | 314 | 3.2 | 24.1 | 0.00 | 0.03 | 0.00 | 31 | 1017.1 |
| 20260503181505 | 17 | 308 | 17.7 | 24.1 | 0.00 | 0.03 | 0.00 | 30 | 1017.2 |
| 20260503181005 | 17 | 322 | 11.3 | 24.1 | 0.00 | 0.03 | 0.00 | 31 | 1017.4 |
| 20260503180505 | 17 | 347 | 3.2 | 20.9 | 0.00 | 0.03 | 0.00 | 32 | 1017.3 |
| 20260503180009 | 17 | 4 | 3.2 | 24.1 | 0.00 | 0.03 | 0.00 | 32 | 1017.4 |
| 20260503175506 | 17 | 340 | 11.3 | 24.1 | 0.00 | 0.03 | 0.00 | 31 | 1017.4 |
| 20260503175005 | 17 | 300 | 14.5 | 24.1 | 0.00 | 0.03 | 0.00 | 32 | 1017.5 |
| 20260503174505 | 17 | 0 | 0.0 | 27.4 | 0.00 | 0.03 | 0.00 | 31 | 1017.3 |
| 20260503174006 | 17 | 286 | 11.3 | 27.4 | 0.00 | 0.03 | 0.00 | 32 | 1017.5 |
| 20260503173505 | 17 | 283 | 14.5 | 27.4 | 0.00 | 0.05 | 0.00 | 34 | 1017.5 |
| 20260503173006 | 16 | 312 | 8.0 | 24.1 | 0.00 | 0.05 | 0.00 | 34 | 1017.7 |
| 20260503172505 | 16 | 319 | 8.0 | 24.1 | 0.00 | 0.05 | 0.00 | 33 | 1017.6 |
| 20260503172005 | 16 | 302 | 3.2 | 24.1 | 0.00 | 0.05 | 0.00 | 33 | 1017.7 |
| 20260503171505 | 16 | 340 | 8.0 | 30.6 | 0.00 | 0.13 | 0.00 | 32 | 1017.7 |
| 20260503171006 | 16 | 344 | 11.3 | 30.6 | 0.00 | 0.13 | 0.00 | 34 | 1017.7 |
| 20260503170506 | 16 | 294 | 11.3 | 30.6 | 0.00 | 0.13 | 0.00 | 34 | 1017.7 |
| 20260503131005 | 11 | 332 | 8.0 | 24.1 | 0.00 | 0.38 | 0.00 | 53 | 1017.5 |
| 20260503130505 | 11 | 330 | 14.5 | 20.9 | 0.00 | 0.38 | 0.00 | 55 | 1017.5 |
| 20260503110505 | 11 | 331 | 8.0 | 16.1 | 0.00 | 0.41 | 0.00 | 64 | 1016.1 |
| 20260503090505 | 10 | 16 | 3.2 | 12.9 | 0.00 | 0.41 | 0.00 | 83 | 1014.2 |
| 20260503081505 | 10 | 0 | 0.0 | 6.4 | 0.00 | 0.41 | 0.00 | 81 | 1013.8 |
| 20260503081005 | 10 | 0 | 0.0 | 6.4 | 0.00 | 0.41 | 0.00 | 81 | 1013.6 |
| 20260503080505 | 10 | 0 | 0.0 | 6.4 | 0.00 | 0.41 | 0.00 | 80 | 1013.4 |
| 20260503072505 | 10 | 0 | 0.0 | 0.0 | 0.00 | 0.41 | 0.00 | 76 | 1013.1 |
| 20260503072005 | 10 | 0 | 0.0 | 0.0 | 0.00 | 0.41 | 0.00 | 76 | 1013.0 |
| 20260503071505 | 10 | 0 | 0.0 | 3.2 | 0.00 | 0.41 | 0.00 | 75 | 1012.9 |
| 20260503055004 | 12 | 0 | 0.0 | 6.4 | 0.00 | 0.41 | 0.00 | 71 | 1012.2 |
| 20260503054505 | 12 | 0 | 0.0 | 6.4 | 0.00 | 0.41 | 0.00 | 71 | 1012.3 |
| 20260503053505 | 12 | 0 | 0.0 | 9.7 | 0.00 | 0.41 | 0.00 | 71 | 1012.5 |
| 20260503053005 | 12 | 0 | 0.0 | 9.7 | 0.00 | 0.41 | 0.00 | 71 | 1012.5 |
| 20260503052505 | 12 | 0 | 0.0 | 6.4 | 0.00 | 0.41 | 0.00 | 71 | 1012.4 |
| 20260503052004 | 12 | 0 | 0.0 | 6.4 | 0.00 | 0.41 | 0.00 | 71 | 1012.4 |
| 20260503051505 | 12 | 0 | 0.0 | 3.2 | 0.00 | 0.41 | 0.00 | 71 | 1012.3 |
| 20260503051005 | 12 | 0 | 0.0 | 3.2 | 0.00 | 0.41 | 0.00 | 71 | 1012.4 |
| 20260503050505 | 12 | 0 | 0.0 | 6.4 | 0.00 | 0.41 | 0.00 | 71 | 1012.5 |
| 20260503050008 | 12 | 0 | 0.0 | 6.4 | 0.00 | 0.41 | 0.00 | 71 | 1012.5 |
| 20260503045505 | 12 | 0 | 0.0 | 3.2 | 0.00 | 0.41 | 0.00 | 72 | 1012.5 |
| 20260503045005 | 12 | 0 | 0.0 | 0.0 | 0.00 | 0.41 | 0.00 | 73 | 1012.5 |
| 20260503044505 | 12 | 0 | 0.0 | 0.0 | 0.00 | 0.41 | 0.00 | 73 | 1012.6 |
| 20260503044005 | 12 | 0 | 0.0 | 0.0 | 0.00 | 0.41 | 0.00 | 73 | 1012.5 |
| 20260503043505 | 12 | 0 | 0.0 | 0.0 | 0.00 | 0.41 | 0.00 | 73 | 1012.5 |
| 20260503043005 | 12 | 0 | 0.0 | 0.0 | 0.00 | 0.41 | 0.00 | 73 | 1012.5 |
| 20260503042505 | 12 | 0 | 0.0 | 6.4 | 0.00 | 0.41 | 0.00 | 70 | 1012.5 |
| 20260503042005 | 12 | 0 | 0.0 | 6.4 | 0.00 | 0.41 | 0.00 | 69 | 1012.5 |
| 20260503041505 | 12 | 0 | 0.0 | 6.4 | 0.00 | 0.41 | 0.00 | 70 | 1012.4 |
| 20260503041005 | 12 | 0 | 0.0 | 6.4 | 0.00 | 0.41 | 0.00 | 72 | 1012.6 |
| 20260503040019 | 12 | 0 | 0.0 | 0.0 | 0.00 | 0.41 | 0.00 | 72 | 1012.5 |
| 20260503035505 | 12 | 0 | 0.0 | 0.0 | 0.00 | 0.41 | 0.41 | 72 | 1012.3 |
| 20260503035004 | 12 | 0 | 0.0 | 0.0 | 0.00 | 0.41 | 0.41 | 72 | 1012.4 |
| 20260503034504 | 12 | 0 | 0.0 | 0.0 | 0.00 | 0.41 | 0.41 | 71 | 1012.7 |
| 20260503034005 | 12 | 0 | 0.0 | 6.4 | 0.00 | 0.41 | 0.41 | 67 | 1012.6 |
| 20260503033504 | 12 | 0 | 0.0 | 6.4 | 0.00 | 0.41 | 0.41 | 66 | 1012.7 |
| 20260503033005 | 12 | 0 | 0.0 | 6.4 | 0.00 | 0.41 | 0.41 | 66 | 1012.5 |
| 20260503032004 | 12 | 0 | 0.0 | 9.7 | 0.00 | 0.41 | 0.41 | 66 | 1012.3 |
| 20260503031505 | 12 | 5 | 3.2 | 9.7 | 0.00 | 0.41 | 0.41 | 66 | 1012.3 |
| 20260503031005 | 12 | 6 | 3.2 | 6.4 | 0.00 | 0.41 | 0.41 | 67 | 1012.4 |
| 20260503030008 | 12 | 0 | 0.0 | 9.7 | 0.00 | 0.41 | 0.41 | 66 | 1012.3 |
| 20260503025505 | 12 | 0 | 0.0 | 6.4 | 0.00 | 0.41 | 0.41 | 67 | 1012.5 |
| 20260503024504 | 12 | 0 | 0.0 | 6.4 | 0.00 | 0.41 | 0.41 | 66 | 1012.7 |
| 20260503024005 | 12 | 0 | 0.0 | 9.7 | 0.00 | 0.41 | 0.41 | 66 | 1012.6 |
| 20260503023505 | 12 | 0 | 0.0 | 9.7 | 0.00 | 0.41 | 0.41 | 66 | 1012.5 |
| 20260503023005 | 12 | 0 | 0.0 | 9.7 | 0.00 | 0.41 | 0.41 | 66 | 1012.7 |
| 20260503022505 | 12 | 357 | 3.2 | 9.7 | 0.00 | 0.41 | 0.41 | 67 | 1012.5 |
| 20260503022005 | 12 | 0 | 0.0 | 9.7 | 0.00 | 0.41 | 0.41 | 67 | 1012.5 |
| 20260503021504 | 12 | 353 | 3.2 | 9.7 | 0.00 | 0.41 | 0.41 | 67 | 1012.5 |
| 20260503021005 | 12 | 5 | 3.2 | 12.9 | 0.00 | 0.41 | 0.41 | 67 | 1012.6 |
| 20260503020504 | 12 | 0 | 0.0 | 12.9 | 0.00 | 0.41 | 0.41 | 67 | 1012.4 |
| 20260503015505 | 12 | 0 | 0.0 | 12.9 | 0.00 | 0.41 | 0.41 | 67 | 1012.5 |
| 20260503014505 | 12 | 3 | 3.2 | 9.7 | 0.00 | 0.41 | 0.41 | 68 | 1012.2 |
| 20260503014004 | 12 | 3 | 3.2 | 9.7 | 0.00 | 0.41 | 0.41 | 69 | 1012.2 |
| 20260503013505 | 12 | 3 | 3.2 | 9.7 | 0.00 | 0.41 | 0.41 | 69 | 1012.1 |
| 20260503012005 | 12 | 5 | 3.2 | 9.7 | 0.00 | 0.41 | 0.41 | 71 | 1012.1 |
| 20260503011505 | 12 | 0 | 0.0 | 12.9 | 0.00 | 0.41 | 0.41 | 71 | 1012.3 |
| 20260503010505 | 12 | 0 | 0.0 | 6.4 | 0.00 | 0.41 | 0.41 | 72 | 1012.2 |
| 20260503010008 | 12 | 0 | 0.0 | 6.4 | 0.00 | 0.41 | 0.41 | 72 | 1012.3 |
| 20260503005504 | 12 | 0 | 0.0 | 6.4 | 0.00 | 0.41 | 0.41 | 72 | 1012.2 |
| 20260503004505 | 12 | 0 | 0.0 | 6.4 | 0.00 | 0.41 | 0.41 | 71 | 1012.0 |
| 20260503004004 | 12 | 0 | 0.0 | 6.4 | 0.00 | 0.41 | 0.41 | 70 | 1012.0 |
| 20260503003505 | 12 | 6 | 3.2 | 9.7 | 0.00 | 0.41 | 0.41 | 69 | 1011.8 |
| 20260503003005 | 12 | 0 | 0.0 | 12.9 | 0.00 | 0.41 | 0.41 | 69 | 1011.8 |
| 20260503002505 | 12 | 0 | 0.0 | 12.9 | 0.00 | 0.41 | 0.41 | 68 | 1011.8 |
| 20260503002005 | 12 | 5 | 8.0 | 9.7 | 0.00 | 0.41 | 0.41 | 68 | 1011.7 |
| 20260503001505 | 12 | 4 | 3.2 | 9.7 | 0.00 | 0.41 | 0.41 | 68 | 1011.5 |
| 20260503000504 | 12 | 356 | 3.2 | 12.9 | 0.00 | 0.41 | 0.41 | 68 | 1011.6 |
| 20260503000009 | 12 | 352 | 3.2 | 16.1 | 0.00 | 0.41 | 0.41 | 68 | 1011.5 |
| 20260502235505 | 12 | 356 | 3.2 | 16.1 | 0.00 | 0.41 | 0.41 | 69 | 1011.5 |
| 20260502234504 | 12 | 350 | 3.2 | 16.1 | 0.00 | 0.41 | 0.41 | 71 | 1011.3 |
| 20260502234005 | 12 | 5 | 8.0 | 16.1 | 0.00 | 0.41 | 0.41 | 73 | 1011.2 |
| 20260502233504 | 12 | 0 | 0.0 | 12.9 | 0.00 | 0.41 | 0.41 | 73 | 1011.2 |
| 20260502233006 | 12 | 333 | 3.2 | 12.9 | 0.00 | 0.41 | 0.41 | 73 | 1011.2 |
| 20260502232505 | 12 | 334 | 3.2 | 12.9 | 0.00 | 0.41 | 0.41 | 73 | 1011.5 |
| 20260502232005 | 12 | 355 | 8.0 | 12.9 | 0.00 | 0.41 | 0.41 | 73 | 1011.5 |
| 20260502231505 | 12 | 357 | 3.2 | 12.9 | 0.00 | 0.41 | 0.41 | 73 | 1011.5 |
| 20260502231005 | 12 | 357 | 3.2 | 12.9 | 0.00 | 0.41 | 0.41 | 73 | 1011.3 |
| 20260502230505 | 12 | 2 | 3.2 | 12.9 | 0.00 | 0.41 | 0.41 | 73 | 1011.3 |
| 20260502230008 | 12 | 355 | 8.0 | 16.1 | 0.00 | 0.41 | 0.41 | 74 | 1011.2 |
| 20260502225505 | 12 | 358 | 3.2 | 16.1 | 0.00 | 0.41 | 0.41 | 74 | 1011.2 |
| 20260502225005 | 12 | 3 | 8.0 | 12.9 | 0.00 | 0.41 | 0.41 | 75 | 1011.2 |
| 20260502224504 | 12 | 4 | 3.2 | 17.7 | 0.00 | 0.41 | 0.41 | 75 | 1011.3 |
| 20260502224005 | 12 | 4 | 8.0 | 17.7 | 0.00 | 0.41 | 0.41 | 75 | 1011.5 |